Location: Marcé
(47.5801°N, 0.3280°W)
Time: 00:42:51
(UTC+01:00)

Vanguard 2 - Visible Passes

Search period start: 30 November 2021 00:00
Search period end: 10 December 2021 00:00
Orbit: 554 x 2936 km, 32.9° (Epoch: 29 November)

Date Brightness Start Highest point End Pass type
(mag) Time Alt. Az. Time Alt. Az. Time Alt. Az.
30 Nov 10.4 18:06:37 10° WSW 18:13:35 32° S 18:24:04 10° SE visible
30 Nov 11.0 20:14:55 10° WSW 20:22:46 24° SSW 20:33:21 10° SSE visible
01 Dec 10.5 18:24:14 10° WSW 18:31:05 29° S 18:41:10 10° SE visible
01 Dec 11.2 20:33:19 10° WSW 20:40:16 19° SSW 20:49:10 10° SSE visible
02 Dec 10.7 18:42:00 10° WSW 18:48:35 25° S 18:58:00 10° SE visible
02 Dec 11.4 20:52:27 10° SW 20:57:45 14° SSW 21:04:02 10° S visible
03 Dec 10.9 18:59:58 10° WSW 19:06:07 21° SSW 19:14:29 10° SSE visible
04 Dec 11.1 19:18:21 10° SW 19:23:38 17° SSW 19:30:26 10° SSE visible
05 Dec 11.4 19:37:36 10° SW 19:41:10 12° SSW 19:45:18 10° S visible
06 Dec 10.9 17:45:34 10° SW 17:50:01 18° SSW 17:55:52 10° SSE visible
07 Dec 11.1 18:04:02 10° SW 18:07:33 14° SSW 18:11:48 10° SSE visible
